Tracking 29892 objects as of 21-Nov-2024
HD Live streaming from Space Station
objects crossing your sky now

STARLINK-4081

Track STARLINK-4081 now!
10-day predictions
STARLINK-4081 is classified as:


NORAD ID: 52660
Int'l Code: 2022-053E
Perigee: 546.0 km
Apogee: 547.7 km
Inclination: 53.2 °
Period: 95.4 minutes
Semi major axis: 6917 km
RCS: Unknown
Launch date: May 18, 2022
Source: United States (US)
Launch site: AIR FORCE EASTERN TEST RANGE (AFETR)
Your satellite tracking list
Your tracking list is empty




NASA's NSSDC Master Catalog

Two Line Element Set (TLE):
1 52660U 22053E   24324.74623399  .00000774  00000-0  66696-4 0  9994
2 52660  53.2161 126.2223 0001236  88.6818 271.4316 15.08839659139414
Source of the keplerian elements: AFSPC